COSMOS 252 DEB *, 3938

Orbit data source: Space-Track

COSMOS 252 DEB *, 3938 is space debris in LEO originally from a launch on Fri, 01 Nov 1968 UTC launched from the Tyuratam Missile And Space Complex (TTMTR). Debris objects in space refer to the collection of defunct objects orbiting the Earth. Examples of debris include non-operational satellites, rocket bodies, and fragments generated from explosions, collisions, or faulty payload assembly.

Loading next visibility...
Identifier
3938, 1968-097BS
Orbit
LEO
Country
Flag of CISCIS
Related business
Manufacturer
Unknown
Mission
Spacecraft
Bus & Motor
Unknown
Mass
Unknown
Launch date (UTC)
1968-11-01 (58 years ago)
Launch vehicle
Unknown
Launch site
Tyuratam Missile And Space Complex (TTMTR)
Object type
Payload
Rocket body
Debris
Shape & HBR
Unknown shape, 0.1 m
Radar Cross Section
Medium (>0.1 m² and <1 m²)

Expand to show TLE details & history
Last TLE update: 11 hours ago

TLE from 11 hours ago
0 COSMOS 252 DEB *
1  3938U 68097BS  26220.00833516  .00000006  00000-0  56869-4 0  9995
2  3938  63.0304  32.2897 1065520 322.4079 114.1375 12.56418491577448
Epoch: 2026-08-08T00:12Z
TLE epoch observation values (Epoch: 2026-08-08T00:12:00.157Z)
Latitude
62.98946°
Longitude
156.28017°
Altitude
1,856.999 km
Speed
6.779 km/s
True Right ascension
07h 43m 13s
True Declination
62° 52' 07"
Sunlit
Object was in daylight at epoch
Visualization orbit readout
Latitude
Unknown
Longitude
Unknown
Altitude
Unknown
Speed
Unknown
Apparent Right ascension
Unknown
Apparent Declination
Unknown
Sunlit
N/A
Visualization observer readout
Local Sidereal Time
00:59:24
Azimuth
Unknown
Elevation
Unknown
Doppler factor
Unknown
Orbital elements
Apogee altitude
2,269.353 km
Perigee altitude
603.986 km
Semi-major axis
7,814.807 km
Eccentricity
0.10655
Inclination
63.0304°
RAAN
32.2897°
Arg. of periapsis
322.4079°
True anomaly
124.64454°
Mean anomaly
114.1375°
Eccentric anomaly
119.45344°
Mean motion
3.14171 °/min
Orbital period
114.59 mins
BSTAR
0.000056869
Loading maneuver chart data...
Computing Atmospheric mass density...

Documentation

Showing up to 5 results
|